RH
95 94 92 94 99 99 99 101 99 101 101 93 90 84 66 51 57 69 70 70 75 61 41 40 43 38 38 37 34 37 38 33 29 27 26 26 26 24 25 27 27 30 29 26 26 26 27 32 38 42 41 42 43 42 43 39 34 36 37 41 47 43 39 39 36 30 26 23 22 23 25 25 27 32 31 30 28 25 28 31 28 26 24 27 27 23 42
95 94 94 97 99 99 100 100 99 100 100 99 96 77 52 48 55 60 64 72 71 53 37 37 41 41 41 37 35 35 34 33 31 29 28 28 28 29 29 28 29 30 29 29 27 28 30 32 36 41 41 40 39 40 44 41 38 41 45 49 47 42 46 47 45 48 44 36 34 31 28 29 31 37 40 38 36 35 34 32 29 27 25 29 29 26 47
96 94 95 98 99 100 100 100 101 101 98 102 99 72 48 50 55 53 57 63 58 48 42 40 41 45 45 41 39 37 34 34 33 31 32 29 28 32 31 28 28 26 26 28 27 27 29 30 34 37 37 37 36 38 43 42 43 51 55 51 43 43 53 52 51 64 61 53 55 53 45 43 40 40 43 44 44 45 43 33 26 26 26 30 26 24 49
95 95 96 98 99 99 100 99 101 100 91 91 94 75 52 49 54 57 57 53 47 45 46 43 40 43 44 41 39 39 37 35 31 31 32 29 28 31 29 27 28 27 27 30 30 26 25 28 30 32 35 37 35 36 38 35 42 61 62 50 43 46 52 52 54 60 56 53 60 62 57 54 50 47 48 51 53 56 51 36 31 36 35 37 34 31 50
94 95 96 96 97 99 101 99 100 101 90 87 89 72 52 45 47 53 55 51 48 45 42 41 40 40 41 40 40 40 39 36 33 32 32 30 29 31 28 27 30 33 33 36 35 28 24 27 30 31 33 34 33 34 33 29 40 60 59 47 52 57 52 50 53 52 50 53 55 55 52 50 50 52 55 57 58 61 55 44 48 53 42 42 53 54 58
93 94 94 96 97 98 101 99 100 100 92 93 90 63 45 45 44 46 49 46 43 42 41 40 39 37 37 38 41 40 38 39 39 35 31 30 29 32 34 31 28 31 33 36 38 34 31 34 37 35 33 34 37 37 35 31 33 46 51 48 59 71 61 52 54 52 51 53 52 52 52 50 52 56 59 59 61 65 65 60 65 66 54 53 65 73 77
94 96 97 99 98 99 101 99 101 94 83 89 87 57 42 44 41 44 48 44 42 45 45 41 40 41 39 38 40 40 38 40 38 33 34 36 31 31 40 39 29 28 29 32 40 41 38 41 43 42 40 39 43 45 45 39 29 36 52 52 52 64 65 55 52 53 52 51 52 52 54 55 56 56 58 60 61 66 68 67 68 66 64 63 65 79 94
97 99 100 100 99 100 100 99 101 93 82 86 79 54 44 44 42 44 43 40 45 47 43 38 37 40 40 39 39 38 36 38 35 30 35 41 37 33 39 39 32 30 30 31 38 40 40 44 45 44 44 41 40 44 46 41 32 36 53 55 49 55 62 58 54 54 55 54 52 51 52 57 61 61 61 62 63 66 70 74 73 67 68 67 63 80 97
99 100 100 100 100 100 100 100 101 93 87 84 67 51 51 53 52 50 40 38 46 43 36 34 31 31 35 37 38 38 36 36 34 30 29 34 36 34 34 36 33 31 32 33 35 33 33 38 36 34 37 35 32 35 35 34 35 40 50 53 50 51 57 60 58 56 57 58 55 54 53 54 61 69 74 77 77 76 76 80 80 77 82 80 67 72 88
100 100 100 100 100 100 99 100 101 94 87 80 62 52 58 57 52 47 37 38 45 39 32 31 27 29 36 39 41 41 37 33 34 34 30 27 30 31 33 37 34 31 36 38 34 30 29 31 28 26 28 27 25 27 26 26 29 35 42 45 46 48 52 55 55 54 59 62 59 58 59 62 71 81 85 89 91 86 81 80 81 83 90 89 74 70 79
100 100 100 99 99 100 100 100 101 97 92 87 72 59 60 58 48 38 33 37 42 36 29 28 29 35 40 39 37 38 38 35 33 35 34 30 30 32 34 37 33 32 37 35 28 26 28 27 25 25 25 25 25 24 25 28 29 31 36 40 46 51 50 50 52 52 60 71 68 63 68 76 84 84 79 84 93 93 91 88 85 85 87 85 78 74 74
100 100 100 97 94 96 100 100 100 98 95 94 84 69 68 69 54 36 31 36 39 36 31 31 36 40 38 34 33 33 35 35 34 38 41 37 36 36 34 35 36 34 32 29 25 25 28 29 28 27 26 25 26 26 29 37 37 33 34 39 46 51 50 50 51 45 53 70 74 76 83 87 87 80 70 74 83 85 90 92 86 84 85 81 76 74 73
100 99 98 94 87 86 93 99 102 98 87 86 87 79 71 67 53 35 29 33 36 37 35 34 35 35 33 34 34 31 30 31 34 40 43 42 40 38 34 34 35 32 28 27 29 29 32 35 35 35 32 27 28 33 36 39 39 36 37 41 46 50 48 46 47 45 50 59 66 80 90 84 80 79 72 75 82 80 84 90 86 84 88 87 82 78 75
100 100 96 89 79 75 79 89 99 96 77 72 84 84 73 66 56 39 29 31 36 39 37 34 34 35 36 36 34 31 31 32 34 37 40 43 42 36 31 29 27 27 27 30 33 32 34 37 37 38 37 35 41 49 46 42 42 40 40 43 45 49 50 48 49 50 51 53 64 84 93 84 81 83 78 81 90 90 90 90 83 79 82 85 89 87 80
99 100 94 83 74 68 68 73 84 84 68 59 71 79 73 70 65 48 33 30 35 37 35 34 36 39 39 37 34 31 30 30 31 31 35 41 40 31 26 24 24 28 32 33 34 32 32 38 41 42 43 45 54 59 51 46 48 46 45 48 50 52 57 60 59 53 50 55 64 74 81 84 85 82 77 79 84 87 91 90 84 83 81 78 87 93 89
99 99 92 79 70 65 63 64 67 67 58 52 62 73 65 52 48 45 35 29 32 34 33 33 38 38 34 33 33 31 28 27 28 27 27 32 32 25 22 24 30 35 35 32 31 30 33 40 43 45 50 53 60 65 56 49 51 46 42 46 51 54 58 60 59 56 56 59 61 65 76 84 85 80 77 76 78 85 92 89 86 93 90 78 82 92 93
99 99 89 75 67 62 60 61 61 58 52 46 54 67 57 34 30 39 36 27 29 32 29 30 36 35 29 29 32 32 32 31 31 31 29 28 25 22 22 27 32 34 33 32 32 32 37 42 41 46 57 63 69 73 62 54 58 55 46 46 52 54 54 54 56 60 63 62 62 71 82 85 83 84 83 78 77 86 94 91 89 97 94 82 81 89 91
99 97 84 70 64 60 57 58 58 56 50 40 43 57 50 26 22 34 33 24 26 30 26 28 34 33 28 30 33 34 35 35 35 33 28 23 22 23 26 30 31 31 31 32 32 33 39 44 45 51 62 69 74 74 65 62 69 66 57 57 60 60 56 54 56 60 63 65 68 76 83 82 82 87 86 81 82 87 91 93 95 97 93 85 85 89 89
98 95 81 67 61 58 55 55 54 52 46 38 41 51 43 22 19 31 33 25 25 30 28 28 34 33 30 31 33 33 35 37 35 29 25 26 27 27 29 33 34 32 30 31 32 34 39 44 45 49 56 62 64 63 63 67 71 69 68 68 70 74 69 60 56 56 56 58 62 69 79 84 85 83 76 75 85 90 91 93 94 92 91 90 91 92 91
99 93 76 64 59 56 53 51 49 45 38 33 40 47 38 22 19 31 36 28 25 30 29 26 29 29 27 30 32 32 33 35 33 29 27 30 33 33 34 36 35 31 30 33 35 34 36 41 43 43 48 52 53 52 56 62 63 65 72 74 74 79 75 65 62 58 51 52 60 71 83 87 85 80 73 74 86 93 93 93 90 89 92 94 94 94 92
99 88 70 60 56 53 52 48 43 40 33 29 36 42 37 26 22 30 36 30 25 30 30 26 25 25 25 28 31 30 31 32 31 30 29 31 35 37 37 35 34 33 32 34 35 34 35 37 38 39 40 42 45 47 50 55 56 54 56 62 70 75 71 67 70 65 58 65 79 87 92 91 86 85 86 87 86 84 85 90 91 93 96 95 94 94 92
99 87 68 58 54 51 51 46 40 38 33 27 31 36 35 30 25 26 31 30 29 31 31 28 28 28 28 29 31 31 30 29 32 35 33 30 31 34 35 34 35 37 35 33 33 33 34 34 35 37 37 36 40 43 42 47 54 52 49 55 67 72 64 63 71 71 68 78 86 84 84 85 83 83 86 85 79 75 80 88 93 96 95 90 90 95 94
100 90 70 58 53 50 49 44 37 37 34 27 29 36 38 33 28 26 28 29 31 32 31 29 29 29 29 29 31 32 32 34 39 42 40 35 28 27 32 35 35 37 39 40 38 33 32 34 34 35 39 39 38 39 40 41 44 48 49 52 58 59 53 55 66 70 71 79 80 72 71 75 74 72 72 72 72 74 78 84 90 95 93 88 89 94 94
101 94 73 57 52 50 47 40 34 36 36 29 25 29 32 29 27 29 30 28 29 31 30 28 28 28 29 28 28 30 32 34 35 33 37 41 35 26 28 35 39 39 39 44 46 35 28 33 33 33 42 44 36 34 41 43 40 38 40 44 48 47 44 48 57 62 69 78 75 65 63 65 63 62 62 62 65 69 72 78 85 88 87 86 87 89 89
101 96 75 56 51 50 43 36 34 36 38 33 25 27 32 29 24 28 32 29 27 30 32 33 31 30 28 26 26 27 29 31 31 29 35 44 41 34 34 41 48 47 40 42 45 33 25 31 32 32 42 46 37 35 41 43 41 36 33 39 46 44 40 43 48 53 63 71 66 56 53 52 48 50 53 54 58 63 66 70 75 76 77 79 80 80 82
100 98 80 59 52 48 39 34 36 38 38 36 30 30 34 30 25 31 35 30 26 27 32 34 32 28 26 26 27 28 28 31 34 33 32 34 35 38 42 43 45 46 40 39 39 30 25 30 30 31 41 43 38 38 40 40 40 39 39 44 46 42 38 39 44 50 56 58 54 48 48 48 45 45 47 49 52 58 63 65 66 65 66 68 69 71 73
98 98 85 65 53 47 38 33 34 36 39 41 38 34 32 28 28 33 34 30 29 30 32 33 30 27 25 25 27 29 30 32 33 29 28 28 31 37 41 37 35 36 34 32 32 28 28 34 35 37 42 42 38 39 39 37 35 37 43 47 41 38 38 37 39 48 53 53 51 46 46 49 49 47 48 48 48 52 57 60 61 60 59 59 61 64 65
99 99 88 68 52 46 41 35 33 35 36 37 39 39 37 34 32 30 27 28 32 31 28 28 29 29 29 28 26 25 29 31 29 25 25 29 31 34 36 33 31 31 29 29 29 28 29 34 35 34 35 36 36 37 36 36 37 40 46 47 43 45 49 41 36 42 47 46 45 43 42 45 46 45 46 45 42 42 45 49 53 57 58 56 57 58 59
97 94 84 68 53 48 44 37 36 38 38 38 42 43 40 38 36 31 26 28 32 29 24 26 29 30 32 32 27 23 25 29 28 24 24 27 29 30 31 32 33 32 29 27 28 28 29 31 31 32 38 41 38 33 33 38 44 47 49 49 48 51 53 45 38 41 43 42 41 39 40 42 43 43 42 41 38 36 36 38 41 46 49 51 53 54 54
85 80 76 66 56 51 46 41 40 41 42 47 48 40 33 35 39 35 28 26 30 28 24 27 31 31 32 34 32 25 22 25 27 28 28 29 28 29 30 31 31 29 26 25 27 27 27 28 30 35 44 45 37 29 29 36 41 43 44 47 46 45 46 45 42 41 41 41 39 37 38 40 40 39 38 39 39 38 36 36 37 38 40 42 44 46 48
75 72 71 66 60 54 45 41 44 47 48 52 48 35 30 36 41 38 28 24 27 27 22 25 31 30 29 34 35 28 24 27 29 29 31 32 29 27 28 29 28 27 25 25 27 26 26 28 32 34 38 40 35 27 26 34 40 40 39 42 43 41 41 43 41 38 38 38 36 35 37 39 38 37 37 38 39 38 36 35 37 43 46 42 38 39 43
70 70 67 62 59 52 39 35 45 50 47 43 39 34 36 42 43 39 29 23 26 27 23 26 32 30 27 31 32 28 29 33 31 26 27 30 29 27 28 29 29 30 28 26 25 27 28 29 31 32 34 36 33 26 27 36 43 41 36 35 37 37 37 38 38 36 36 35 34 35 38 37 35 35 35 34 34 33 32 30 31 39 44 39 33 34 38
68 68 64 58 57 53 43 38 43 41 32 27 30 34 39 43 42 36 28 26 32 32 27 27 32 32 30 32 31 30 32 33 27 21 23 29 31 28 27 28 28 29 30 28 27 29 29 26 25 29 32 31 27 29 35 40 42 39 35 33 33 33 32 34 34 32 32 33 32 32 34 34 32 32 32 32 32 32 31 29 29 31 32 30 28 30 33
66 64 59 55 58 58 50 41 38 33 30 33 39 42 43 44 39 31 26 29 34 31 26 27 30 30 30 31 30 31 32 30 26 22 23 29 33 29 24 25 26 27 30 30 27 26 28 25 23 26 27 25 26 34 42 40 35 34 33 33 33 33 32 31 31 29 30 31 29 28 29 31 31 32 31 30 32 33 31 30 29 28 28 27 28 29 31
63 59 56 57 60 55 45 40 40 39 36 38 41 42 41 39 34 28 28 31 31 26 25 27 29 29 30 32 31 31 31 30 29 27 25 27 30 27 22 23 26 30 33 31 25 23 27 29 28 25 25 28 32 37 38 35 31 31 31 30 30 32 32 32 32 32 31 31 29 28 28 28 29 31 30 29 29 30 29 29 28 27 27 27 27 29 30
59 55 54 58 61 55 45 42 44 42 36 37 42 42 39 35 31 27 28 29 30 29 27 26 26 27 30 32 31 31 31 30 29 29 27 25 26 25 22 23 28 33 33 28 24 24 28 31 29 26 26 33 38 38 35 33 32 31 31 32 31 31 32 33 33 33 33 34 34 31 28 27 27 29 29 29 28 28 29 29 29 29 29 29 29 29 29
54 52 55 58 57 49 42 42 45 41 37 40 43 40 36 35 33 29 27 29 33 34 31 27 28 31 32 32 31 31 31 28 26 25 25 25 24 23 21 24 30 33 30 27 27 29 29 28 28 30 32 36 39 38 36 36 35 34 34 34 32 30 30 31 32 31 31 33 34 31 27 26 27 28 28 28 28 30 30 30 29 30 30 30 30 30 29
50 52 58 56 45 36 36 40 41 38 37 39 39 35 31 30 28 26 26 28 32 34 31 30 32 34 34 33 33 34 33 28 24 25 26 26 25 24 22 25 30 30 29 30 32 32 30 26 27 33 37 37 37 38 38 37 37 38 36 35 34 33 33 33 33 31 29 30 31 30 27 27 28 28 28 28 28 30 30 29 28 29 30 31 31 32 32
55 57 56 45 34 34 39 39 36 36 39 39 36 31 27 25 26 29 29 27 28 30 31 32 34 36 35 33 33 37 37 31 25 24 26 28 29 26 24 26 27 27 29 32 32 30 31 30 29 33 36 35 35 38 38 35 36 39 38 36 37 38 36 35 36 35 32 32 33 33 32 31 30 29 28 28 28 29 29 29 30 30 31 32 34 34 34
59 54 43 33 35 43 46 40 37 39 38 31 26 25 26 26 29 32 31 29 31 32 32 34 36 38 38 35 31 34 39 37 30 24 26 31 33 28 25 26 27 27 31 33 30 27 31 33 31 33 35 34 34 36 36 34 35 38 39 38 39 39 37 36 37 37 35 34 33 33 34 33 32 30 29 28 28 29 29 29 31 32 33 36 38 37 36
59 49 38 37 44 50 47 39 34 34 30 25 25 29 32 32 32 31 30 32 36 35 33 34 35 35 35 34 30 30 37 39 31 24 25 31 33 30 28 28 27 28 33 34 28 25 28 31 32 32 32 31 32 34 33 32 33 36 38 40 40 40 39 37 37 37 35 33 32 32 33 34 34 33 31 30 30 30 30 31 33 34 35 36 38 38 37
53 47 43 42 42 40 35 31 28 27 25 26 31 36 35 33 34 33 31 32 35 34 34 37 36 34 35 37 32 30 36 39 31 23 23 29 30 28 28 27 27 30 35 34 27 26 30 34 35 33 31 31 33 32 31 30 31 33 36 39 40 40 37 35 35 36 35 34 33 33 33 35 35 34 33 32 31 32 32 33 34 36 36 36 37 37 38
46 44 42 39 34 30 30 28 27 28 29 31 36 42 42 36 34 34 32 32 34 34 36 39 38 35 37 39 33 30 36 39 31 22 24 29 28 26 27 28 29 32 35 31 28 30 34 35 34 32 31 32 33 31 30 32 32 33 36 40 42 41 38 35 35 36 37 37 38 37 35 35 35 35 35 34 33 32 33 34 36 37 38 38 37 37 38
46 39 35 32 28 28 32 32 29 32 36 36 35 41 44 41 36 34 33 33 34 34 35 35 33 32 35 36 31 29 32 32 26 24 28 31 28 27 30 33 33 33 32 30 30 32 33 30 28 28 30 33 34 33 32 33 32 32 34 38 39 40 39 37 36 36 36 37 38 38 37 37 36 35 35 35 34 35 35 36 38 40 41 40 39 38 39
43 33 32 36 35 32 35 37 34 33 35 33 29 29 33 34 32 32 32 32 32 33 33 31 30 31 34 35 32 29 27 25 25 28 30 29 29 32 34 33 31 31 32 33 34 35 35 32 30 30 32 34 34 33 33 33 32 32 33 34 35 36 36 36 35 35 35 36 37 38 38 38 38 37 37 37 38 39 38 38 39 41 41 41 40 40 41
36 29 31 38 40 36 34 37 36 32 30 29 26 24 25 27 28 32 36 34 31 31 33 31 29 30 32 32 30 28 25 24 29 32 30 29 35 39 35 31 31 34 37 38 38 36 33 30 29 29 31 32 32 33 33 33 33 33 34 34 35 36 37 37 37 37 37 39 40 40 40 40 40 41 41 40 40 41 41 42 43 43 43 43 42 41 43
31 30 29 31 36 36 32 33 34 33 30 30 28 27 29 31 32 36 39 36 31 30 33 32 30 31 31 30 30 29 25 25 32 35 31 31 37 39 34 32 36 38 40 43 41 33 28 28 29 30 32 32 32 33 33 32 33 35 35 35 37 38 39 40 40 41 42 44 44 42 42 43 44 44 45 44 43 42 42 45 46 45 45 45 43 43 44
32 33 31 30 34 34 31 30 33 34 34 34 33 32 31 32 33 37 41 38 33 32 33 32 30 31 31 30 30 30 26 27 34 37 32 31 37 41 39 40 40 37 35 37 34 27 26 30 33 33 33 33 32 32 33 34 36 38 37 38 39 41 41 42 43 45 47 48 46 44 44 45 46 46 46 46 45 44 45 47 49 48 47 47 45 44 45
32 33 34 33 33 33 32 32 33 33 34 36 35 33 31 31 34 38 40 37 34 34 33 29 27 31 32 31 30 31 30 30 35 36 32 33 38 41 41 45 47 42 34 30 27 25 28 32 33 33 34 33 33 34 36 37 38 40 40 41 43 44 44 45 47 50 51 50 48 48 49 48 47 47 47 46 47 47 47 50 51 50 48 48 46 45 45
34 34 35 36 37 36 35 34 34 34 36 36 34 31 30 33 37 39 39 36 33 33 32 28 27 30 33 32 34 36 35 32 32 34 35 36 37 36 36 41 43 38 30 27 27 29 30 31 32 35 36 35 35 36 38 39 41 42 42 44 45 46 46 49 50 51 52 52 52 52 52 50 48 48 49 50 51 50 50 51 52 50 48 48 48 47 47
37 36 36 38 38 36 34 33 34 34 34 33 32 30 30 31 35 39 40 36 31 30 31 30 30 31 34 36 39 41 39 33 31 34 36 35 33 32 33 34 32 28 28 30 30 29 29 29 31 34 36 36 37 38 38 39 41 41 42 44 45 45 47 50 51 50 51 52 53 53 52 50 50 52 54 56 55 52 48 49 51 52 50 50 50 49 49
38 37 38 39 37 33 31 30 30 30 31 31 32 33 33 32 35 40 42 36 30 29 30 30 30 32 36 38 38 37 37 39 40 40 39 36 33 31 30 29 27 27 30 32 31 30 31 33 35 36 36 36 38 39 40 40 41 41 43 45 46 46 46 48 49 50 50 48 48 49 49 49 52 56 58 56 53 48 44 46 50 54 54 52 51 52 52
Wind_Speed
12 12 12 12 14 15 16 17 16 16 15 9 4 4 3 4 3 5 4 2 3 5 2 3 2 2 3 1 1 1 1 1 1 1 1 1 2 2 2 1 1 1 3 4 4 4 3 1 1 1 4 6 6 5 4 1 3 3 2 4 3 2 2 5 6 6 7 5 2 4 4 3 4 1 1 3 5 6 5 6 6 6 5 5 7 8 2
12 11 12 13 14 16 16 17 16 15 12 7 5 4 3 4 4 4 3 1 5 4 2 3 3 4 3 2 4 3 1 1 0 0 1 1 1 2 1 0 1 2 2 3 4 4 3 1 3 1 2 4 5 6 5 3 1 0 0 1 2 3 2 3 5 5 7 6 5 5 5 4 3 1 3 3 4 5 4 5 6 7 8 8 8 6 1
12 11 12 13 15 16 17 17 16 16 13 7 5 3 2 4 3 4 3 1 3 1 2 1 3 5 4 3 4 3 3 3 2 2 3 3 2 2 1 1 3 2 1 2 1 3 3 1 2 1 1 3 3 5 7 4 2 3 5 3 2 3 2 3 4 5 7 5 3 2 2 2 2 2 4 5 5 5 4 5 7 8 7 9 9 5 2
11 11 12 13 15 16 17 16 17 19 11 7 8 4 2 4 3 3 4 2 1 1 1 1 1 4 3 4 3 1 3 4 2 1 1 3 3 2 2 2 3 3 3 3 2 1 2 2 0 1 1 2 3 5 5 6 5 4 6 5 1 4 3 5 6 6 6 5 2 0 3 4 2 3 6 7 7 5 5 5 6 3 3 6 7 6 1
10 11 12 13 15 16 16 16 18 17 2 11 7 4 2 3 3 3 3 3 2 2 2 1 1 2 1 1 2 1 2 4 3 0 1 3 2 1 3 2 1 2 3 4 3 2 1 1 0 1 1 1 3 4 3 6 8 3 2 5 3 3 4 7 9 8 5 3 1 1 4 4 2 5 6 7 8 6 5 5 3 3 3 4 4 10 4
10 10 11 13 14 15 16 15 17 12 5 9 2 3 2 1 1 2 1 1 3 3 3 2 3 3 2 1 1 2 2 2 2 2 1 1 1 1 1 2 2 3 3 3 3 3 2 1 1 1 2 1 2 3 2 4 7 3 0 3 3 3 4 6 8 7 4 2 2 2 1 1 3 5 6 6 7 6 4 3 5 6 4 2 4 6 4
10 10 11 13 14 15 15 15 15 9 3 4 4 3 2 0 2 2 2 1 3 4 4 3 4 4 2 2 2 2 3 3 3 2 1 1 2 2 0 2 3 3 3 3 2 1 1 1 3 3 4 3 1 2 2 1 3 4 0 1 2 2 3 5 6 6 5 4 4 4 4 3 4 5 5 4 4 4 4 4 5 5 3 3 2 5 8
10 10 12 14 15 15 15 14 15 10 2 3 4 2 1 1 2 2 1 3 4 4 4 3 4 4 1 2 3 2 3 4 3 2 1 1 2 1 0 2 2 2 3 2 1 4 3 2 4 4 4 2 2 1 1 1 2 2 1 1 1 0 1 3 4 5 5 5 4 5 5 4 4 5 6 5 3 3 4 5 5 4 3 3 0 4 6
10 11 12 13 14 15 15 14 14 10 2 2 3 0 1 2 2 1 2 5 3 2 3 2 2 4 1 2 3 2 3 4 2 3 3 3 2 3 2 2 1 1 1 1 2 4 4 3 4 5 5 3 3 2 2 4 4 1 0 1 1 2 1 3 4 5 4 6 6 6 6 5 5 5 8 8 6 5 4 4 6 5 5 5 2 3 4
10 11 12 13 14 15 14 13 14 10 3 2 3 1 1 0 0 2 2 3 1 2 3 2 2 3 2 2 2 1 3 3 0 2 2 1 2 4 4 3 2 2 2 1 3 4 5 7 7 6 5 5 4 3 2 4 4 3 2 2 1 1 2 2 4 5 3 5 6 5 6 6 3 4 7 7 5 7 4 4 7 8 7 5 3 2 5
10 11 12 12 13 15 14 14 14 11 4 2 3 1 0 2 1 2 3 3 3 2 2 2 1 2 2 2 3 2 2 2 0 1 1 1 1 1 2 2 3 1 2 3 4 5 6 6 6 4 5 6 4 3 2 2 3 4 4 3 2 2 4 2 2 4 2 5 5 6 6 4 1 4 6 5 3 7 6 4 9 10 7 4 3 4 7
10 11 11 11 12 14 14 13 13 11 6 1 2 2 1 3 2 2 4 3 4 3 2 2 3 3 4 3 3 3 2 1 2 3 2 1 1 1 1 3 3 2 4 4 5 6 4 3 3 3 3 4 4 4 3 2 1 1 2 3 3 3 4 2 2 4 1 5 5 6 3 0 3 3 7 6 1 5 6 3 7 12 9 6 3 5 7
11 10 10 10 11 13 13 14 13 11 8 2 1 3 2 2 2 2 2 2 4 2 1 4 5 4 5 4 3 2 1 1 1 2 3 2 1 2 2 2 2 4 5 6 7 6 4 4 3 3 3 5 5 5 4 2 3 2 0 1 3 4 4 3 3 3 2 4 4 3 2 4 4 3 8 8 2 5 6 3 5 12 11 7 4 6 7
10 11 10 9 11 12 13 14 13 11 8 3 1 3 3 3 2 1 1 1 3 3 1 3 5 4 4 3 2 2 2 3 2 3 3 2 3 2 1 1 3 5 4 5 5 4 4 3 3 3 4 5 4 5 5 4 6 7 4 1 2 5 5 5 4 3 3 3 2 3 4 4 5 3 7 7 3 5 5 2 4 11 9 4 4 5 7
10 11 10 9 10 11 12 13 13 10 7 3 1 1 2 2 3 2 1 1 3 4 1 1 3 4 4 2 1 3 3 3 3 3 3 2 3 3 0 2 4 3 3 4 3 3 2 2 2 2 2 2 2 2 3 3 4 5 5 3 1 2 1 2 3 2 2 3 3 4 4 3 5 6 7 6 4 4 4 3 2 8 10 5 4 6 7
10 10 10 9 9 11 12 12 12 9 6 3 2 1 1 1 2 0 1 0 3 3 2 3 3 1 2 2 0 2 2 1 2 3 4 4 4 2 1 1 2 2 4 4 3 2 2 2 2 2 1 1 2 1 1 1 2 3 4 4 3 3 4 1 2 2 2 4 3 2 1 3 6 9 9 9 6 2 3 4 1 7 10 5 5 6 7
10 10 10 8 9 10 11 12 12 9 6 4 3 1 1 1 3 1 1 1 3 3 3 3 1 2 1 1 2 0 1 0 1 2 1 2 2 1 0 0 2 4 5 4 3 2 2 2 1 1 2 3 2 3 2 2 1 1 4 5 5 4 4 3 3 2 0 1 2 4 3 3 8 12 11 10 5 3 4 2 2 7 8 4 6 6 5
11 10 9 8 8 10 10 11 12 10 6 4 5 4 3 1 4 2 1 3 5 4 4 2 2 0 2 2 2 2 2 1 1 1 0 1 1 0 2 1 2 3 4 4 3 2 2 1 1 1 2 2 2 2 1 2 2 3 5 3 4 5 3 1 3 4 4 4 5 5 3 4 10 13 10 7 2 3 1 2 3 6 6 4 6 5 4
11 10 9 8 8 9 10 11 12 10 7 5 6 5 4 3 7 5 2 3 4 5 5 2 3 4 3 2 3 2 0 1 1 1 1 2 1 1 2 1 1 2 2 3 2 1 1 2 2 2 2 3 1 2 2 2 2 4 4 3 3 3 3 2 2 4 4 4 5 5 4 5 11 14 9 4 1 1 2 4 4 4 4 5 6 7 6
11 10 8 7 7 8 10 11 11 10 8 8 8 7 7 7 7 5 3 5 6 7 6 3 3 6 4 3 4 3 1 0 1 2 1 2 2 2 3 3 1 1 2 2 1 1 1 3 4 2 3 5 2 2 5 6 5 4 3 4 4 3 1 3 4 3 4 5 5 4 3 5 13 13 6 5 4 2 2 3 4 5 6 6 7 8 8
11 10 7 6 6 8 9 10 10 8 7 8 8 8 10 12 11 8 8 9 8 7 5 4 5 7 6 6 6 6 5 4 4 4 3 3 2 2 1 2 1 1 0 0 1 1 1 2 4 2 3 3 2 1 4 6 6 6 4 3 4 5 3 3 3 3 3 5 6 5 2 5 11 9 4 4 5 2 1 2 5 7 6 6 9 9 9
12 9 7 5 6 7 8 9 10 8 6 7 9 9 9 12 13 13 14 13 10 8 7 7 6 7 7 6 6 6 6 5 5 5 3 2 2 1 1 2 2 2 2 1 0 2 2 2 3 4 4 4 3 3 3 4 5 6 5 3 5 7 6 7 7 6 6 6 4 3 3 4 6 6 5 4 5 5 5 5 6 6 6 7 9 9 10
12 10 7 5 4 6 8 8 8 8 7 7 9 10 10 12 14 16 17 15 11 10 9 8 7 6 6 7 7 7 7 5 4 5 5 3 2 2 1 2 2 1 1 2 2 2 3 3 3 4 5 4 3 5 6 5 6 7 7 6 7 5 5 7 8 8 8 8 5 5 6 7 7 8 7 7 8 8 7 8 8 7 8 9 9 10 10
12 11 7 4 4 5 7 8 8 8 8 8 11 14 15 16 15 13 13 11 8 7 7 6 4 4 5 6 6 6 8 8 5 3 4 4 2 2 3 3 2 0 2 2 3 1 4 4 2 4 5 3 2 4 7 6 6 6 7 7 8 6 4 6 7 6 5 6 7 8 10 10 9 9 9 10 11 10 9 9 9 9 10 10 10 11 11
12 12 7 4 4 5 7 8 8 8 8 9 12 13 13 12 9 6 6 6 5 5 6 6 5 4 5 5 6 7 8 8 6 3 0 3 4 3 4 3 2 2 3 2 2 1 4 4 3 6 6 2 2 4 6 5 4 4 4 6 6 3 2 5 9 8 7 8 10 11 12 12 10 10 9 9 10 11 10 10 10 11 12 12 12 12 10
12 12 8 4 4 5 7 8 10 10 9 9 10 10 10 9 7 6 7 7 5 4 5 6 6 5 6 7 8 7 7 7 6 5 4 3 3 5 6 5 3 3 3 2 1 2 5 5 4 6 6 3 3 5 6 6 5 5 6 6 3 0 2 6 10 11 10 10 12 12 12 13 12 12 11 10 10 11 10 10 11 12 12 12 12 11 10
12 12 8 4 4 5 7 9 12 13 11 10 9 9 9 8 6 5 6 4 3 3 5 6 5 6 9 11 9 7 7 7 6 8 9 7 5 5 4 3 3 3 3 3 3 4 5 7 7 7 6 5 5 5 6 6 7 8 8 6 3 3 6 7 8 8 8 8 8 7 8 9 9 10 11 10 10 11 10 10 10 10 10 11 10 10 10
12 12 8 3 4 5 6 8 12 13 13 13 13 11 9 8 5 4 3 2 1 2 6 6 5 5 6 8 8 8 8 8 8 10 11 10 8 6 4 2 2 2 3 4 5 5 7 7 6 6 5 4 4 5 6 6 7 8 7 6 5 4 3 3 5 7 8 8 7 5 7 9 9 10 10 9 9 10 10 9 9 8 9 9 9 9 9
12 11 7 4 4 5 5 7 9 10 10 11 11 9 8 8 7 5 4 5 5 5 6 6 5 4 3 4 6 8 9 10 11 12 12 12 12 10 8 6 4 4 5 6 6 7 7 6 4 4 3 1 1 5 6 6 7 8 8 8 7 5 5 6 9 11 10 10 9 8 9 10 9 9 9 8 8 8 9 9 8 8 8 8 7 7 7
10 8 6 4 4 4 5 6 6 6 6 6 4 4 5 5 5 5 7 10 8 4 4 5 5 4 2 3 5 8 9 9 12 14 13 12 11 10 8 7 6 4 5 6 6 6 6 5 4 4 2 4 1 5 6 6 8 8 8 8 8 7 7 8 8 9 10 9 9 9 10 10 9 8 8 7 7 7 8 8 7 7 7 6 6 5 5
8 6 5 4 4 3 4 5 5 4 4 2 2 3 4 3 3 4 7 9 6 2 4 5 4 4 3 2 4 8 8 7 8 10 10 9 9 10 9 7 6 6 6 7 6 5 5 4 4 4 2 3 2 4 7 7 8 8 9 9 9 9 9 9 8 9 11 10 9 10 10 9 7 6 6 6 5 6 7 7 6 5 3 3 4 4 3
6 4 3 4 4 3 4 5 4 4 4 3 2 3 4 4 4 4 6 7 5 3 4 5 4 3 3 3 3 6 6 3 3 5 6 6 6 8 9 7 6 7 6 4 5 5 4 4 5 6 3 3 2 4 7 7 8 9 9 9 9 8 9 9 9 10 10 8 7 9 8 7 5 5 6 6 6 6 7 8 7 5 3 3 5 5 3
4 2 2 4 4 4 6 7 6 6 8 8 9 9 7 6 6 6 7 7 4 1 1 2 4 4 2 2 3 6 6 1 2 4 5 5 4 3 5 5 5 5 6 4 4 3 2 3 7 7 4 2 2 6 8 7 9 10 9 9 9 9 9 9 8 8 7 5 4 5 7 7 6 6 7 7 6 6 6 6 6 5 4 4 5 4 3
2 2 3 4 5 7 9 11 9 7 7 6 7 7 6 7 7 6 7 6 4 2 2 1 3 4 2 3 3 5 6 2 2 3 4 4 4 1 4 4 4 4 5 4 3 4 3 4 6 6 5 4 5 7 7 8 10 9 8 8 8 8 8 8 7 7 6 5 6 7 7 7 6 6 6 6 5 5 4 4 3 3 2 2 3 2 2
1 3 4 6 8 10 11 10 7 5 4 4 5 5 7 9 8 7 5 3 1 2 2 1 1 4 4 4 4 4 5 3 3 3 3 3 3 3 3 4 5 4 3 2 2 6 5 2 2 4 5 5 6 6 6 8 9 8 8 8 7 6 6 7 6 6 5 4 5 6 6 5 5 5 4 4 4 3 3 2 1 1 1 1 1 0 1
3 4 6 8 10 10 8 6 3 2 3 4 5 6 9 11 11 10 8 5 4 2 2 1 1 3 3 4 5 2 2 1 3 2 1 3 3 3 2 4 5 3 1 0 4 7 4 2 1 4 6 5 5 6 6 6 8 8 7 7 5 4 5 5 4 4 4 4 5 5 4 4 4 3 2 2 2 1 1 1 1 1 2 2 2 2 2
5 6 8 9 8 6 4 3 3 2 4 7 8 7 8 7 7 7 7 5 6 5 1 1 2 2 1 3 4 1 1 1 3 2 1 2 3 2 2 4 4 1 1 4 6 4 2 1 1 5 7 5 5 6 5 5 7 7 6 5 4 2 3 3 2 2 4 4 4 3 2 2 2 2 1 1 1 1 1 1 0 1 2 3 3 3 3
7 8 7 6 5 3 3 3 3 6 8 8 6 5 3 1 2 4 3 2 2 3 2 1 3 2 0 2 3 2 1 1 3 2 2 2 1 1 2 3 2 1 3 5 4 1 1 3 4 6 7 6 6 6 5 5 6 5 4 5 4 2 2 3 1 1 2 3 3 2 1 1 1 1 1 0 1 1 1 1 1 2 2 3 3 3 3
8 7 5 4 3 2 3 5 7 8 7 4 1 1 1 0 1 3 2 1 1 2 1 1 3 1 0 3 4 2 2 0 3 4 3 1 1 1 2 2 1 1 4 5 2 1 2 4 5 5 6 6 6 6 5 5 6 5 5 6 6 5 4 4 3 2 3 3 3 3 2 2 2 2 1 0 1 1 1 1 1 1 3 4 4 3 3
7 5 4 3 2 3 5 8 8 5 3 1 0 1 1 1 0 1 1 2 2 2 1 1 3 1 2 1 4 3 2 2 0 3 4 2 1 0 2 3 1 1 4 5 2 1 2 4 5 5 5 6 6 6 5 5 6 6 6 7 8 7 6 6 5 4 3 3 3 3 3 2 2 2 1 1 1 1 1 1 1 2 3 3 3 3 2
4 3 3 3 5 6 7 7 5 1 1 1 1 1 1 2 1 0 1 2 3 3 1 1 3 3 1 1 2 3 2 2 2 1 3 3 1 1 2 3 1 1 3 4 1 1 3 4 4 5 6 7 7 6 5 6 6 6 7 7 7 7 6 6 5 4 3 2 2 2 2 2 2 2 2 2 2 1 1 1 1 2 3 3 3 3 2
4 5 7 8 9 8 6 3 2 1 0 1 2 2 1 2 2 2 1 1 2 2 2 1 2 4 3 2 2 3 2 1 1 0 2 2 1 1 2 3 1 2 3 3 1 3 4 4 4 5 6 8 8 7 6 6 6 6 7 7 7 6 6 6 6 5 5 4 4 4 3 3 2 2 1 2 2 2 2 2 2 3 4 4 4 3 2
10 11 10 8 6 3 1 1 1 1 0 1 2 1 1 2 2 2 2 1 1 2 2 2 2 4 3 1 2 3 2 0 1 0 2 2 1 0 2 2 1 1 3 2 3 4 4 4 5 6 7 8 7 6 6 6 5 5 6 6 5 5 5 5 5 5 4 4 4 4 4 3 3 2 2 2 3 3 3 3 3 4 5 5 5 5 3
10 7 4 3 2 0 0 1 1 0 1 1 1 2 3 3 3 3 3 3 3 3 4 3 4 4 3 1 1 2 2 1 0 1 2 2 1 1 2 2 2 2 2 3 3 3 3 3 4 6 8 8 6 6 6 5 4 4 5 5 4 3 2 2 2 2 2 2 3 3 3 3 3 2 2 2 3 4 5 5 4 4 5 6 6 6 4
5 3 3 3 1 1 1 1 1 1 1 2 2 3 3 4 4 4 3 3 3 5 5 4 4 4 4 2 0 1 1 1 1 2 1 2 2 2 2 2 2 2 3 4 3 3 4 4 4 7 9 9 7 6 6 4 3 3 3 3 3 2 0 1 1 2 3 2 3 4 4 4 4 4 4 4 4 5 6 6 6 6 6 6 7 6 5
2 2 2 2 1 2 1 2 2 2 2 2 2 2 2 2 4 4 3 2 4 6 5 4 4 5 4 2 1 1 1 2 2 2 0 1 2 2 1 1 2 2 3 4 4 4 4 5 6 8 9 9 8 6 5 4 3 2 2 1 2 1 1 2 2 3 3 3 4 5 5 6 6 6 6 6 7 7 7 7 7 7 7 7 7 7 5
2 1 0 1 2 1 1 1 1 1 1 1 1 1 2 4 5 5 3 2 4 6 5 4 3 4 3 2 1 2 2 2 2 2 0 0 3 3 0 1 2 2 3 4 5 4 4 5 7 8 9 8 7 6 5 3 3 2 2 1 1 1 1 1 2 3 3 3 5 6 6 6 6 6 6 7 8 8 8 7 7 7 7 7 7 7 6
2 0 1 1 2 2 2 2 2 2 1 1 2 2 3 4 5 5 3 2 4 6 5 4 4 4 3 1 1 2 3 2 2 2 0 1 3 2 2 2 2 2 2 3 4 3 4 6 7 8 8 7 6 5 4 3 3 2 2 2 1 1 1 1 2 3 3 4 5 5 5 6 6 6 6 7 8 8 7 7 7 7 7 7 8 8 8
2 1 0 1 1 1 1 2 2 3 3 3 3 4 4 5 6 5 3 3 4 4 3 2 2 3 3 2 1 2 3 2 1 2 2 2 2 2 2 2 3 3 3 2 2 3 5 7 7 8 8 7 5 4 3 3 3 3 2 1 1 0 1 2 3 3 3 3 4 4 4 5 5 5 6 7 7 7 6 6 6 7 8 8 8 8 8
1 1 1 1 1 2 2 3 4 5 5 4 4 5 5 6 6 4 3 3 4 4 3 2 2 2 2 2 2 3 2 1 1 3 3 2 2 2 2 2 3 3 3 3 3 5 6 7 7 7 7 6 5 4 3 3 3 2 1 1 1 1 2 2 2 3 2 2 2 3 4 4 5 5 6 6 6 7 7 7 7 7 7 7 8 8 8
0 1 1 0 1 2 3 4 5 7 6 6 6 5 5 6 6 4 2 3 4 5 4 3 2 2 2 2 2 2 2 1 2 2 2 2 2 2 3 2 2 2 4 5 5 6 6 6 6 6 6 5 4 3 3 2 1 1 0 0 1 2 2 1 2 2 1 1 2 3 4 5 5 5 6 6 6 8 8 7 6 6 6 7 8 8 8
1 2 2 1 1 2 2 3 5 6 6 5 5 4 4 5 6 4 3 4 4 4 3 3 2 2 2 2 2 2 2 2 2 2 2 2 2 2 1 2 3 4 5 6 6 5 5 5 5 4 4 4 3 2 2 0 0 0 1 1 1 2 2 1 1 2 2 3 3 4 5 6 6 6 6 6 7 8 8 6 5 5 6 7 7 8 8
Wind_Direction
336 337 334 334 333 333 333 333 335 336 340 348 327 289 238 188 115 107 131 103 297 262 169 130 195 138 92 91 105 84 275 217 171 163 203 225 220 219 231 298 343 28 7 343 340 355 5 62 91 88 94 75 40 23 20 292 247 237 183 117 134 205 242 250 249 254 257 247 149 151 172 208 224 200 8 299 273 269 266 264 261 252 243 242 252 252 183
339 337 334 335 334 335 335 334 335 333 328 316 293 279 188 147 103 122 148 319 293 262 145 137 150 109 112 144 126 121 54 25 10 184 42 22 284 246 223 12 347 20 9 326 339 360 348 91 76 55 102 77 46 30 13 331 305 14 51 138 202 221 203 237 255 259 244 223 197 180 180 224 240 94 45 355 315 292 266 248 251 246 237 235 249 260 147
340 338 336 336 337 339 337 337 337 328 311 268 242 264 168 144 120 133 152 264 270 260 46 64 122 114 126 122 114 140 126 64 13 14 43 32 351 307 339 2 322 324 316 276 319 6 346 8 62 25 111 99 69 33 19 13 36 26 19 34 224 235 183 196 231 244 240 239 236 206 205 265 278 38 22 9 350 304 266 244 239 236 238 236 242 258 125
340 339 338 340 341 341 341 343 339 329 310 203 197 258 226 163 151 143 155 190 220 96 52 324 124 123 130 110 98 159 144 110 59 352 50 60 33 8 22 347 291 298 301 269 246 346 343 339 288 230 113 100 73 40 29 33 37 20 17 33 233 231 194 193 211 224 247 286 333 327 284 284 292 357 1 7 357 318 274 253 247 254 270 246 258 295 230
343 342 342 343 344 344 347 349 345 341 359 156 181 262 243 188 173 156 160 174 169 156 161 156 91 118 147 112 87 92 151 138 130 29 37 60 41 20 36 18 308 314 314 279 267 293 279 265 285 343 352 91 106 88 55 35 30 7 4 44 51 252 219 198 210 218 230 290 349 214 270 287 350 7 360 1 357 333 271 253 305 346 263 234 321 339 328
346 346 346 345 346 349 352 353 349 349 125 145 212 243 194 251 159 127 343 207 163 153 139 117 108 109 99 87 91 93 122 145 136 106 96 81 15 327 77 53 43 30 349 286 267 277 247 211 40 26 358 344 158 142 100 35 30 22 306 75 88 261 239 186 202 216 194 184 189 188 234 30 57 36 14 357 354 353 317 303 352 341 290 267 4 6 26
347 347 349 348 350 354 355 357 352 340 169 164 289 239 164 100 134 105 332 310 99 89 100 126 130 107 86 114 100 73 85 97 96 75 142 136 41 349 195 80 49 47 12 302 279 314 282 78 58 32 1 346 264 192 146 74 28 42 44 164 129 267 245 175 196 213 177 170 185 170 158 119 82 57 33 1 347 6 2 353 346 320 314 1 43 88 64
347 348 351 350 352 356 357 359 354 337 259 231 286 256 178 210 136 119 153 119 89 97 123 148 141 123 147 142 102 66 71 81 88 67 15 105 82 10 321 67 31 33 14 324 67 53 25 32 41 7 340 336 318 337 71 15 343 36 36 310 100 208 218 160 195 218 180 171 182 169 169 154 104 68 39 19 4 10 8 6 355 319 322 353 20 114 71
348 350 352 352 355 359 360 359 354 347 321 233 268 260 23 347 14 306 181 126 100 141 135 155 158 133 151 138 115 122 80 64 80 94 46 19 46 36 17 26 3 236 292 289 97 65 19 338 335 323 302 305 329 341 14 350 323 294 100 282 221 224 227 165 207 236 196 181 195 178 172 178 142 73 29 15 10 6 5 19 22 3 344 334 273 150 97
349 350 351 354 356 358 1 360 354 355 11 266 280 113 120 267 75 273 241 131 146 203 141 169 187 105 77 89 105 104 79 68 154 135 94 26 40 35 10 350 309 237 216 98 51 22 337 316 311 302 284 282 292 295 308 313 297 295 315 302 287 302 284 210 216 242 183 169 198 189 187 206 176 64 12 355 356 357 357 29 24 3 339 325 320 68 101
349 348 351 355 358 358 359 0 357 358 10 304 293 9 65 278 214 216 224 159 148 197 175 172 146 94 101 126 138 138 113 119 297 12 111 140 75 18 342 317 300 298 74 56 17 331 310 301 292 280 266 259 255 255 261 249 260 282 294 294 309 309 289 277 244 259 196 150 189 209 213 232 148 67 8 338 344 359 354 10 12 357 337 337 15 86 120
346 347 351 356 0 0 358 0 2 1 4 338 273 305 312 295 286 216 215 171 144 187 205 93 69 108 138 144 156 153 141 134 25 1 335 10 45 234 254 284 293 34 44 358 320 299 277 249 233 225 229 227 206 197 196 152 107 264 256 276 295 293 284 272 243 270 248 139 184 220 227 344 149 110 19 359 306 348 333 310 14 8 348 347 54 118 123
345 347 353 357 0 3 2 2 4 1 3 17 257 283 276 266 275 243 227 181 144 167 170 101 96 122 137 146 169 154 137 274 22 334 284 280 248 212 215 269 316 9 357 319 305 284 252 225 220 207 177 172 169 174 170 104 43 25 127 225 261 264 263 247 232 261 243 187 200 217 130 87 141 142 23 10 330 344 330 270 40 19 355 356 60 105 110
348 347 350 357 2 9 11 6 3 4 5 16 265 274 263 254 280 284 240 198 121 103 113 134 135 145 143 147 193 207 212 231 235 234 234 240 252 247 189 316 339 351 327 299 282 252 236 226 225 214 179 175 183 184 166 105 42 19 23 49 250 255 255 249 228 211 232 230 115 111 146 112 90 54 16 11 343 344 332 273 40 21 6 21 86 107 112
350 349 350 356 4 13 18 13 9 10 12 30 59 297 267 240 267 304 304 205 132 129 159 118 126 150 157 144 272 263 240 225 233 221 182 187 244 245 216 332 333 329 282 273 263 228 230 242 242 244 225 215 236 217 180 135 71 40 29 25 307 241 264 295 256 206 244 245 157 139 184 135 56 13 2 5 337 313 299 255 30 18 9 30 109 117 115
353 351 350 356 7 15 20 19 17 19 24 55 109 282 298 178 173 233 307 175 136 135 93 50 65 136 158 121 100 285 276 254 258 229 180 178 208 206 156 336 321 264 248 253 245 223 224 224 245 285 318 14 345 294 300 358 130 108 65 56 77 122 122 76 276 248 266 243 195 127 114 85 23 353 347 347 331 278 245 231 123 13 1 23 105 113 111
354 352 351 358 11 17 21 22 22 25 39 71 109 64 344 139 152 173 282 103 100 90 77 68 92 204 176 136 144 166 318 306 281 273 192 152 165 178 145 187 194 223 250 250 224 204 200 202 233 308 59 49 343 274 312 359 45 61 24 39 63 87 133 171 214 225 317 176 126 83 76 50 0 343 337 336 324 200 211 231 53 13 358 33 91 98 100
353 352 353 1 12 17 22 24 24 27 45 81 91 64 16 117 142 142 141 120 106 89 78 42 345 77 69 42 77 72 352 322 246 266 215 122 125 346 343 327 190 203 237 246 221 181 152 134 13 34 79 68 319 283 336 341 352 13 360 10 55 55 60 148 169 139 103 103 105 93 84 31 353 337 333 338 304 189 198 354 2 350 353 45 63 63 74
355 352 354 4 15 18 22 25 26 32 49 81 93 68 35 91 134 139 122 115 110 98 97 66 36 77 81 50 81 98 306 284 310 290 193 138 85 354 317 277 231 215 223 222 207 163 120 105 86 56 93 114 104 75 80 43 4 9 360 8 33 25 27 55 109 115 106 113 110 102 101 46 353 332 327 350 339 185 30 3 335 344 23 65 55 53 74
353 351 355 7 16 19 24 27 29 39 61 87 99 85 61 83 127 145 113 109 113 104 100 91 81 93 91 59 58 64 56 44 4 350 25 64 28 275 218 180 173 221 207 188 159 130 91 102 111 97 88 100 109 102 94 79 50 23 17 46 37 348 337 77 71 69 90 99 89 79 86 23 350 338 342 16 14 31 40 8 23 47 58 69 65 64 82
353 352 357 10 20 24 29 31 33 45 71 87 93 86 72 77 98 116 114 116 119 109 105 102 87 81 68 48 37 24 15 14 6 355 14 46 19 284 240 91 62 321 297 44 100 101 77 92 110 113 98 103 142 166 112 92 70 45 24 43 36 1 352 76 46 6 45 81 69 52 21 336 342 355 23 16 4 23 100 53 61 64 63 73 75 71 76
353 355 359 11 24 29 32 34 36 50 78 89 88 89 83 82 94 105 103 98 92 93 106 110 94 82 73 59 37 13 3 354 339 328 324 13 49 356 11 60 51 23 7 327 94 109 117 123 111 108 103 95 100 114 102 89 83 62 32 35 54 39 48 75 67 49 57 70 68 51 28 356 2 27 40 30 39 66 88 86 78 71 72 83 86 82 81
356 358 2 13 30 36 39 39 39 55 82 93 90 92 94 96 101 104 100 95 93 98 110 118 116 106 87 61 36 19 12 355 322 300 294 306 53 65 43 50 57 50 359 325 343 69 98 106 100 97 94 77 77 101 93 78 83 79 65 73 83 72 69 82 87 92 86 75 71 74 69 63 57 54 54 57 65 74 81 83 84 85 89 94 97 96 96
358 358 3 24 42 43 46 45 46 63 84 99 103 106 106 105 108 109 105 105 113 112 103 99 89 70 50 38 25 14 10 0 343 306 274 278 317 65 73 49 19 96 91 38 333 356 85 87 87 95 91 52 17 89 93 83 82 87 89 93 91 85 86 90 99 119 109 79 78 85 85 83 80 75 72 70 72 77 82 85 95 102 102 103 105 107 106
0 360 5 39 65 60 58 56 59 73 89 105 114 117 113 109 114 122 112 107 120 118 103 89 67 32 17 28 25 14 12 11 7 24 83 280 320 25 77 73 8 16 73 61 284 245 96 93 111 105 94 31 344 71 88 86 74 70 89 97 85 71 84 90 91 99 101 96 96 93 89 87 86 83 81 79 81 85 89 96 107 111 112 114 117 117 115
0 360 5 44 84 79 74 70 73 80 90 105 116 123 119 107 103 111 111 103 98 97 101 99 82 56 50 51 37 18 22 32 33 46 67 65 46 69 103 117 88 73 90 77 355 65 88 89 96 98 91 61 39 71 85 87 79 73 75 71 59 75 129 101 98 101 103 107 110 105 98 92 85 82 84 88 94 98 100 107 112 113 115 121 124 124 124
1 360 7 46 100 96 91 89 88 88 90 98 107 118 122 112 96 94 101 99 95 108 113 109 97 83 73 61 44 29 33 41 53 63 64 67 82 101 119 119 101 101 109 93 79 82 88 84 78 81 91 89 73 74 86 84 81 85 78 52 38 115 113 109 115 114 111 115 117 110 106 102 92 90 92 94 101 107 110 116 120 119 120 122 124 125 127
360 360 10 50 109 108 107 106 100 95 95 98 100 102 104 100 93 90 72 6 344 121 118 111 116 121 94 58 38 41 46 46 59 70 66 65 76 90 98 93 89 89 83 85 93 93 88 88 89 88 95 100 84 85 95 88 76 78 68 40 36 67 66 79 110 107 105 113 113 100 105 108 103 100 100 97 101 104 102 107 119 127 130 132 130 129 132
357 3 17 53 106 118 126 126 113 102 96 97 100 101 93 80 72 81 98 96 97 113 122 114 111 120 95 32 27 49 56 54 61 65 64 64 66 70 74 75 69 70 80 84 90 92 85 79 83 83 61 338 77 102 100 89 78 75 65 52 55 56 36 52 90 105 108 112 110 106 110 112 109 107 104 97 94 93 89 93 104 115 126 133 133 135 138
1 14 32 60 102 126 141 139 126 106 91 92 114 143 129 92 62 74 110 116 112 115 129 119 105 97 82 19 24 41 48 53 61 60 56 56 57 57 63 70 65 66 87 87 80 88 95 82 73 81 33 324 347 109 103 90 86 82 73 70 77 82 70 62 81 104 109 107 106 106 108 110 110 109 104 96 87 85 87 88 88 92 104 114 118 126 137
6 23 44 72 99 129 149 147 134 98 65 33 263 200 153 121 81 92 117 121 119 120 116 111 113 121 118 68 20 22 27 41 57 57 49 48 54 57 57 59 58 55 74 89 79 71 86 85 80 103 91 330 339 100 100 95 95 89 83 84 87 90 88 81 83 99 108 110 110 107 107 112 117 114 108 105 98 91 94 97 92 87 91 98 100 107 121
10 26 56 84 97 128 147 144 134 92 64 56 71 87 92 100 105 117 127 125 126 131 116 113 127 131 116 97 46 17 6 19 68 65 47 36 48 62 59 58 65 54 45 75 88 68 63 76 84 94 84 325 328 96 95 90 93 93 90 92 93 93 97 98 98 106 112 114 110 110 113 113 104 96 101 112 115 105 99 101 104 111 120 109 103 105 110
12 39 86 95 96 119 134 134 127 103 88 89 87 79 81 101 110 117 126 121 110 58 39 105 129 114 103 141 88 22 354 330 121 82 54 26 8 55 71 65 73 53 22 31 81 80 65 96 98 92 73 7 56 93 89 86 96 100 97 96 96 98 100 102 103 106 105 87 68 83 101 101 93 94 106 115 116 108 100 100 106 116 121 109 103 105 113
14 93 112 104 103 118 126 127 124 109 94 90 81 70 76 96 104 115 124 118 105 84 49 42 130 114 113 172 126 29 357 350 95 76 64 34 350 9 95 85 76 60 31 27 88 106 96 96 100 97 85 74 82 91 91 96 103 106 103 102 105 109 112 110 103 96 92 82 72 76 88 100 106 112 116 117 116 117 118 115 111 108 107 94 85 97 129
137 130 122 116 118 124 125 122 120 115 98 89 86 86 94 98 96 103 115 117 161 143 115 20 149 132 130 139 115 45 354 5 67 52 62 67 26 18 84 94 81 66 26 350 99 104 90 58 84 106 98 87 84 90 98 105 109 110 109 107 107 111 112 109 102 93 90 96 98 94 96 104 109 109 109 113 121 132 137 133 116 358 344 14 32 65 212
155 137 129 125 122 122 122 114 103 109 110 102 104 110 109 102 91 86 84 68 38 69 124 170 161 132 122 114 105 64 333 73 95 62 60 106 73 24 57 94 85 65 335 13 98 96 82 327 303 113 105 92 85 84 84 92 99 102 101 97 90 85 84 83 92 104 104 101 103 104 98 89 89 93 101 110 119 142 189 194 207 275 304 324 328 296 263
156 136 130 130 128 126 122 98 72 92 118 119 118 113 107 104 98 87 79 62 39 28 8 178 116 75 50 90 98 83 285 138 120 103 82 96 80 33 51 88 91 94 154 99 84 76 58 343 106 103 96 85 83 80 72 73 82 84 85 87 87 83 76 73 84 123 127 123 121 117 105 87 85 91 114 122 123 147 213 236 265 335 332 338 334 308 282
146 135 134 146 153 145 122 107 116 128 128 126 127 116 91 96 133 107 80 46 40 23 340 70 101 96 149 106 84 24 335 142 142 128 91 77 93 91 74 75 77 170 119 96 77 13 66 93 98 99 97 96 94 89 81 80 80 75 72 79 73 52 61 82 99 159 148 136 121 97 72 55 52 47 23 21 95 115 125 91 66 35 358 350 344 312 273
142 140 151 172 165 118 103 124 135 136 131 129 148 130 91 352 172 124 86 4 106 95 351 86 101 96 149 115 98 52 354 247 162 143 118 75 58 114 119 97 91 175 134 115 122 232 143 113 113 117 118 118 112 102 97 98 95 85 74 70 64 57 67 88 84 55 51 58 51 34 11 352 351 353 347 346 129 143 151 145 92 19 357 356 349 325 283
151 157 164 160 118 90 111 131 135 138 146 153 150 115 107 79 84 119 144 163 131 96 24 83 103 55 340 82 116 94 14 329 263 126 116 95 32 8 130 107 91 181 145 124 127 229 148 129 134 136 131 128 124 119 117 109 99 91 82 74 71 72 83 92 86 61 45 47 44 30 20 6 342 324 319 313 279 205 191 236 291 345 358 360 355 342 319
164 167 150 127 114 111 119 127 123 118 186 147 88 62 85 91 80 107 186 164 131 102 62 162 147 133 75 26 105 106 67 355 347 67 98 89 29 294 123 106 95 214 137 115 127 200 148 140 151 150 134 128 128 130 126 112 101 94 90 85 83 85 90 94 90 72 49 45 38 22 17 1 315 295 288 291 282 253 231 251 284 334 345 340 338 341 333
149 132 118 116 118 121 124 123 95 45 173 125 78 54 81 120 144 179 192 150 117 122 136 170 123 113 97 53 59 85 77 356 303 233 111 95 41 321 110 117 176 192 118 106 163 181 151 149 161 150 134 131 135 138 130 116 107 100 92 85 82 82 81 82 83 74 55 42 32 19 10 358 330 306 287 279 268 242 234 262 289 314 322 322 319 314 303
131 124 122 123 123 126 139 118 64 35 131 121 103 117 148 163 172 164 133 109 126 140 133 115 100 110 114 76 56 82 84 14 302 32 87 99 119 172 122 131 164 122 104 132 191 179 163 170 169 151 140 140 144 143 133 120 115 113 107 97 88 82 74 70 73 72 61 47 36 23 9 354 341 330 302 278 264 252 254 272 295 309 313 311 301 292 285
129 126 128 128 119 85 165 129 92 8 159 153 171 174 165 167 183 178 152 151 158 146 137 153 166 149 131 110 79 103 117 159 198 77 91 117 144 140 127 128 113 100 138 178 184 161 154 167 157 142 141 144 147 143 138 135 133 127 120 116 114 109 97 79 68 58 46 36 23 3 349 339 331 315 279 258 261 272 279 285 293 301 303 299 291 286 278
151 153 144 125 88 332 316 137 182 240 196 173 192 194 174 170 173 162 132 127 145 142 138 151 160 137 118 112 120 120 127 143 126 100 113 144 132 91 83 109 118 137 172 177 165 158 167 169 151 143 147 151 153 150 147 143 141 136 132 135 140 139 129 319 316 317 315 320 325 321 318 314 307 295 278 267 266 275 282 287 290 292 292 288 285 284 274
168 150 143 130 71 323 286 151 169 207 188 163 179 199 183 151 135 121 104 115 141 138 134 137 138 129 125 128 119 104 123 128 105 84 232 178 124 86 57 129 151 163 175 171 174 181 178 163 154 154 155 152 149 149 150 148 152 165 188 186 160 156 251 286 293 299 303 305 304 300 300 299 298 295 291 286 278 274 275 280 285 290 288 284 283 283 276
133 118 239 148 131 172 219 181 134 92 121 126 98 74 85 93 98 97 92 123 135 125 117 114 110 104 105 118 128 121 123 113 94 81 311 160 112 103 125 203 172 166 176 179 187 187 161 144 144 149 149 147 146 150 152 154 160 176 201 199 168 175 217 261 286 298 305 304 297 291 289 291 292 294 295 294 288 281 276 271 272 279 281 277 277 278 275
143 144 280 171 146 165 187 160 123 97 91 85 82 93 110 118 117 106 88 101 130 130 131 138 135 118 111 128 139 121 118 112 103 99 76 106 120 136 176 177 161 175 200 197 190 174 147 137 137 139 141 144 147 148 146 143 144 153 158 151 150 177 275 300 305 310 310 301 295 292 292 294 293 291 292 293 291 286 279 271 268 271 272 271 273 275 272
104 116 140 143 139 124 124 146 143 130 115 107 118 131 134 124 114 107 103 117 127 119 107 118 139 131 123 126 129 122 124 125 119 130 153 163 151 155 171 168 168 182 197 194 172 141 128 127 130 133 136 138 137 135 133 131 133 143 148 140 139 282 318 319 314 312 305 298 299 306 306 303 297 291 289 289 290 290 288 281 274 269 266 265 270 273 273
58 122 139 148 160 146 148 167 157 137 129 135 140 138 132 121 114 115 122 127 126 124 119 114 115 110 112 134 148 135 121 104 132 155 163 162 148 153 174 185 184 179 166 153 138 126 124 127 132 132 132 133 133 132 128 126 134 151 166 164 202 294 318 324 314 306 302 304 320 325 315 306 303 301 302 305 305 299 291 281 274 271 266 263 266 271 273
94 169 134 100 194 151 151 162 154 140 142 148 140 128 128 128 125 127 143 149 150 159 159 139 120 125 138 150 150 131 120 129 165 167 156 137 148 173 181 177 167 147 132 127 126 126 128 134 139 138 135 134 129 121 115 117 131 161 175 332 318 324 336 333 307 303 309 316 317 316 313 310 311 310 308 306 302 295 288 278 267 266 266 263 263 267 271
181 160 116 87 193 170 151 150 141 132 133 134 126 119 125 122 117 127 175 186 172 156 140 129 143 163 156 137 127 131 136 147 167 166 148 143 170 204 169 109 113 125 128 127 129 128 125 123 122 122 123 123 117 109 103 107 227 291 330 342 336 333 332 322 316 329 331 322 317 318 316 312 306 297 288 286 289 294 296 293 283 274 272 270 267 267 268